Regional Weather Roundup
Issued by NWS Kansas City/Pleasant Hill, MO

Home | Current Version | Previous Version | Text Only | Print | Product List | Glossary On
Versions: 1 2 3 4 5 6 7 8 9 10 11 12 13 14 15 16 17 18 19 20 21 22 23 24 25 26 27 28 29 30 31 32 33 34 35 36 37 38 39 40 41 42 43 44 45 46 47 48 49 50
000
ASUS43 KEAX 291011
RWREAX

WEATHER ROUNDUP FOR EASTERN KANSAS AND NORTHWEST MISSOURI
NATIONAL WEATHER SERVICE KANSAS CITY/PLEASANT HILL MO
400 AM CST THU JAN 29 2015

KSZ040-057-103>105-MOZ028-029-037-043-291100-
...KANSAS CITY METROPOLITAN AREA...

CITY           SKY/WX    TMP DP  RH WIND       PRES   REMARKS
K.C. INTL      CLOUDY    41  35  79 NW23G33   30.06R WCI  31
K.C. DOWNTOWN  CLOUDY    47  37  68 NW21G33   30.05R
LEES SUMMIT    CLOUDY    45  35  68 NW21G32   30.05R
OLATHE - IXD   CLOUDY    44  36  73 NW24G37   30.06R WCI  35
OLATHE - OJC   CLOUDY    46  37  71 N15G32    30.03R
LAWRENCE       CLOUDY    42  33  70 N24G41    30.10R WCI  32

$$

MOZ001>008-011>017-020>025-030>033-038>040-044>046-053-054-291100-
...NORTHERN AND CENTRAL MISSOURI...

CITY           SKY/WX    TMP DP  RH WIND       PRES   REMARKS
ST. JOSEPH     CLOUDY    40  31  70 N31G41    30.08R WCI  28
MOSBY          CLOUDY    43  36  75 NW18G37   30.04R WCI  34
WARRENSBURG    CLOUDY    45  36  70 NW23G30   30.01R
WHITEMAN AFB   CLOUDY    46  37  70 NW20G37   29.99R
CLINTON        CLEAR     46  37  71 NW17G24   30.00R
SEDALIA        CLOUDY    47  37  68 NW20G35   29.98R
WARSAW         NOT AVBL
MARSHALL       CLOUDY    48  39  71 NW13      29.95R
CHILLICOTHE      N/A     42  33  70 NW13G31   30.02R
MOBERLY        CLOUDY    41  32  70 NW21G29   29.93R WCI  32
KIRKSVILLE     FLURRIES  37  32  82 NW21G33   29.93R WCI  26

$$

MOZ041-047>049-056>058-063>065-088>090-097-291100-
...EASTERN AND SOUTHERN MISSOURI...

CITY           SKY/WX    TMP DP  RH WIND       PRES   REMARKS
ST. LOUIS INTL PTCLDY    51  39  63 SW10      29.79R
SPIRIT OF STL  CLEAR     51  39  63 W8        29.79R
COLUMBIA       MOCLDY    45  36  70 NW30G40   29.91R
JEFFERSON CITY CLEAR     49  37  63 NW21G26   29.90R
MEXICO         CLEAR     46  41  81 W18G28    29.86R
HANNIBAL       CLOUDY    43  32  65 NW23G38   29.85R WCI  33
ROLLA          CLEAR     51  37  58 W18       29.85R
LEBANON        CLEAR     52  37  58 NW13G22   29.93R
OSAGE BEACH    CLEAR     52  36  54 NW8G21    29.92R
SPRINGFIELD    CLEAR     51  36  56 NW8       29.96R
BRANSON        PTCLDY    57  37  47 W7G17     29.98R
NEVADA         CLEAR     48  37  66 N16G25    30.04R
JOPLIN         CLEAR     51  35  54 NW13G23   30.04R
WEST PLAINS    PTCLDY    51  40  65 W7        29.91S

$$

IAZ060-094-KSZ022-034>040-054-083-096-NEZ052-066-093-291100-
...KANSAS...SOUTHEAST NEBRASKA AND IOWA...

CITY           SKY/WX    TMP DP  RH WIND       PRES   REMARKS
TOPEKA         CLOUDY    43  33  68 N20G32    30.13R WCI  34
MANHATTAN      CLOUDY    41  31  67 N16G25    30.20R WCI  33
EMPORIA        PTCLDY    46  35  65 N16G26    30.11R
CHANUTE        CLEAR     50  35  56 NW17      30.06R
WICHITA        PTCLDY    50  32  50 N21G32    30.14R
OMAHA          LGT RAIN  35  30  82 NW28G37   30.12R WCI  22
LINCOLN        CLOUDY    38  28  67 NW20G32   30.19R WCI  28
FALLS CITY     CLOUDY    38  29  70 NW14G33   30.12R WCI  30
LAMONI         CLOUDY    37  31  78 NW22G33   30.00R WCI  26
DES MOINES     DRIZZLE   37  31  78 NW20G26   29.97R WCI  27

$$




USA.gov is the U.S. government's official web portal to all federal, state and local government web resources and services.